Location: Gorze? G�rny
(49.8500°N, 19.5000°E)
Time: 04:39:01
(UTC+00:00)

ERBS - Pass Details

Date: 13 May 2021
Orbit: 399 x 417 km, 57.0° (Epoch: 20 June)

Event Time Altitude Azimuth Distance (km) Brightness Sun altitude
Rises 21:35:04 0° 301° (WNW) 2,356 6.8 -20.1°
Reaches altitude 10° 21:37:12 10° 295° (WNW) 1,494 5.6 -20.2°
Enters shadow 21:39:39 37° 261° (W) 660 3.2 -20.3°
